"Pseudo-MPEC" for P11oK4C

Created 2021 Nov 30 13:07:40 UT using Find_Orb

Click here for an explanation of pseudo-MPECs

 
 Astrometry: 
     P11oK4C  C2021 11 09-HnK6h:FAstrometryTj6i@(i3ckRhlr;uuo2#N'(dIC0#gO:V/4F51
     P11oK4C  C2021 11 099R!CTj5`ev5ZG7Q(@oRc/*/#akTpmVn!!]';HWP)Ywtd:Z2W`AbIF51
     P11oK4C  C2021 11 10y#gjW7]g+8Bi?]kP3N0eItEc.WuHR7qQ:8redacted;BKPYl5r5XF51
     P11oK4C  C2021 11 10krJB`x,KGZJei':73Q/eE!aJQ@AlQy^$#ZdVfi#mBit\'clickagF51
     P11oK4C  C2021 11 10jL2kg\w.S*q8bOL+8Ibm+\jA=R/aXu-F2*Te.IM!fMl-@p3XUIIPF51
     P11oK4C  C2021 11 10g!9(Y55Y!s3fuvi#QU%$Hgx71vl5yBT6*hKtGhereLm5lC15FbE%F51
     P11oK4C  C2021 11 11@ml?e]*aO?;LuoZ7gforT_mGt9j_N6!spA@b:+yG)rUneKN#8\b_F51
     P11oK4C  C2021 11 11)6xtu'dPTZqOwf4Q?[Z7explanationQj_=;gtTI\mSLF'!MEQ[ZF51
     P11oK4C  C2021 11 1101BEbaZBy22^)NL#\O9O\euc@cq^wMn.pmJWNl0:YICaOFC$9La$F51
     P11oK4C KC2021 11 30.44281308 57 58.54 +11 21 53.5    ~BUBM 21.65GVNEOCPV06
     P11oK4C KC2021 11 30.45187608 57 58.54 +11 21 56.5    ~BUBM 21.79GVNEOCPV06
     P11oK4C KC2021 11 30.45862608 57 58.56 +11 21 58.4    ~BUBM 21.62GVNEOCPV06
     P11oK4C KC2021 11 30.46538208 57 58.56 +11 22 00.5    ~BUBM 21.97GVNEOCPV06

Station data:
(F51) Pan-STARRS 1, Haleakala  (N20.707235 W156.255910)  US/Hawaii.
   Observers N. Primak, A. Schultz, S. Watters, J. Thiel, T. Goggia. Measurer
   PS1 Science Consortium. 1.8-m Ritchey-Chrétien + CCD.
(V06) Catalina Sky Survey-Kuiper  (N32.416847 W110.732550)  US/Arizona.
   Observers T. A. Pruyne, B. M. Africano, E. J. Christensen, G. A. Farneth,
   D. C. Fuls, A. R. Gibbs, A. D. Grauer, H. Gröller, J. A. Johnson, R. A.
   Kowalski, S. M. Larson, G. J. Leonard, D. Rankin, R. L. Seaman, F. C.
   Shelly. 1.55-m reflector + CCD.

Orbital elements:  P11oK4C
   Perihelion 2020 Sep 1.876593 +/- 7.45275 TT = 21:02:17 (JD 2459094.376593)
Epoch 2021 Nov 30.0 TT = JDT 2459548.5                        AutoNEOCP
M 106.89841656 +/- 3.0936437        (J2000 ecliptic)
n   0.23539508 +/- 0.0030774        Peri.  220.33598 +/- 2.1246387
a   2.59779250 +/- 0.0226221        Node   123.22673 +/- 0.0470837
e   0.2435564 +/- 0.00319274        Incl.   30.87817 +/- 0.0834904
P   4.19                   H 17.2   G  0.15   U  8.9  
q 1.96508342 +/- 0.00986987    Q 3.23050158 +/- 0.0365554
From 13 observations 2021 Nov. 9-30; mean residual 0".09
Residuals in arcseconds: 
211109 F51  .16+  .04-    211110 F51  .06-  .01+    211130 V06  .10-  .12+    
211109 F51  .13-  .05+    211111 F51  .10-  .02+    211130 V06  .07+  .02-    
211110 F51  .12-  .07-    211111 F51  .17+  .17+    211130 V06  .06-  .04+    
211110 F51  .03+  .00     211111 F51  .03-  .17-    
211110 F51  .07+  .03+    211130 V06  .08+  .14-    

Ephemerides (geocentric):
Date (UTC) HH   RA              Dec         delta   r     elong  mag " sig PA
---- -- -- --  -------------   -----------  ------ ------ -----  --- ---- ---
2021 11 30 13  08 57 58.727   +11 22 24.86  2.3561 2.9065 114.5 22.3 .035 150
2021 11 30 14  08 57 58.829   +11 22 37.47  2.3556 2.9066 114.5 22.3 .049 149
2021 11 30 15  08 57 58.929   +11 22 50.11  2.3551 2.9067 114.5 22.3 .062 148
2021 11 30 16  08 57 59.026   +11 23 02.76  2.3547 2.9068 114.6 22.3 .076 148
2021 11 30 17  08 57 59.121   +11 23 15.44  2.3542 2.9068 114.6 22.3 .089 147
2021 11 30 18  08 57 59.213   +11 23 28.13  2.3537 2.9069 114.7 22.3 .103 147
2021 11 30 19  08 57 59.303   +11 23 40.84  2.3532 2.9070 114.7 22.3 .117 147
2021 11 30 20  08 57 59.390   +11 23 53.56  2.3528 2.9071 114.8 22.3 .131 147
2021 11 30 21  08 57 59.474   +11 24 06.31  2.3523 2.9072 114.8 22.3 .145 146
2021 11 30 22  08 57 59.556   +11 24 19.07  2.3518 2.9073 114.8 22.3 .159 146
2021 11 30 23  08 57 59.635   +11 24 31.86  2.3513 2.9073 114.9 22.3 .173 146
2021 12 01 00  08 57 59.712   +11 24 44.66  2.3509 2.9074 114.9 22.3 .187 146
2021 12 01 01  08 57 59.786   +11 24 57.47  2.3504 2.9075 115.0 22.3 .202 146
2021 12 01 02  08 57 59.857   +11 25 10.31  2.3499 2.9076 115.0 22.3 .216 146
2021 12 01 03  08 57 59.926   +11 25 23.17  2.3494 2.9077 115.1 22.3 .231 146
2021 12 01 04  08 57 59.993   +11 25 36.04  2.3490 2.9078 115.1 22.3 .245 146
2021 12 01 05  08 58 00.056   +11 25 48.93  2.3485 2.9079 115.1 22.3 .260 146
2021 12 01 06  08 58 00.117   +11 26 01.84  2.3480 2.9079 115.2 22.3 .275 146
2021 12 01 07  08 58 00.176   +11 26 14.77  2.3475 2.9080 115.2 22.3 .290 146
2021 12 01 08  08 58 00.232   +11 26 27.72  2.3471 2.9081 115.3 22.3 .305 146
2021 12 01 09  08 58 00.285   +11 26 40.68  2.3466 2.9082 115.3 22.3 .320 145
2021 12 01 10  08 58 00.336   +11 26 53.66  2.3461 2.9083 115.4 22.3 .335 145
2021 12 01 11  08 58 00.384   +11 27 06.67  2.3456 2.9084 115.4 22.3 .350 145
2021 12 01 12  08 58 00.430   +11 27 19.69  2.3452 2.9084 115.4 22.3 .365 145
2021 12 01 13  08 58 00.473   +11 27 32.72  2.3447 2.9085 115.5 22.3 .381 145
2021 12 01 14  08 58 00.513   +11 27 45.78  2.3442 2.9086 115.5 22.3 .396 145
2021 12 01 15  08 58 00.551   +11 27 58.86  2.3437 2.9087 115.6 22.3 .412 145
2021 12 01 16  08 58 00.586   +11 28 11.95  2.3433 2.9088 115.6 22.3 .427 145
2021 12 01 17  08 58 00.619   +11 28 25.06  2.3428 2.9089 115.7 22.3 .443 145
2021 12 01 18  08 58 00.649   +11 28 38.19  2.3423 2.9089 115.7 22.3 .459 145
2021 12 01 19  08 58 00.676   +11 28 51.34  2.3419 2.9090 115.7 22.3 .475 145
2021 12 01 20  08 58 00.701   +11 29 04.51  2.3414 2.9091 115.8 22.3 .491 145
2021 12 01 21  08 58 00.723   +11 29 17.69  2.3409 2.9092 115.8 22.3 .507 145
2021 12 01 22  08 58 00.743   +11 29 30.90  2.3404 2.9093 115.9 22.3 .523 145
2021 12 01 23  08 58 00.760   +11 29 44.12  2.3400 2.9094 115.9 22.3 .540 145
2021 12 02 00  08 58 00.774   +11 29 57.36  2.3395 2.9095 116.0 22.3 .556 145
2021 12 02 01  08 58 00.786   +11 30 10.62  2.3390 2.9095 116.0 22.3 .572 145
2021 12 02 02  08 58 00.795   +11 30 23.90  2.3386 2.9096 116.0 22.3 .589 145
2021 12 02 03  08 58 00.802   +11 30 37.19  2.3381 2.9097 116.1 22.3 .606 145
2021 12 02 04  08 58 00.806   +11 30 50.51  2.3376 2.9098 116.1 22.3 .622 145
2021 12 02 05  08 58 00.807   +11 31 03.84  2.3372 2.9099 116.2 22.3 .639 145
2021 12 02 06  08 58 00.806   +11 31 17.19  2.3367 2.9100 116.2 22.3 .656 145
2021 12 02 07  08 58 00.802   +11 31 30.56  2.3362 2.9100 116.3 22.3 .673 145
2021 12 02 08  08 58 00.795   +11 31 43.95  2.3357 2.9101 116.3 22.3 .690 145
2021 12 02 09  08 58 00.786   +11 31 57.36  2.3353 2.9102 116.3 22.3 .708 145
2021 12 02 10  08 58 00.775   +11 32 10.79  2.3348 2.9103 116.4 22.3 .725 145
2021 12 02 11  08 58 00.760   +11 32 24.23  2.3343 2.9104 116.4 22.3 .742 145
2021 12 02 12  08 58 00.743   +11 32 37.69  2.3339 2.9105 116.5 22.3 .760 145